THORAD DELTA 1 DEB, 18693

Orbit data source: Space-Track

THORAD DELTA 1 DEB, 18693 is space debris in SSO originally from a launch on Fri, 15 Nov 1974 UTC launched from the Air Force Western Test Range (AFWTR). Debris objects in space refer to the collection of defunct objects orbiting the Earth. Examples of debris include non-operational satellites, rocket bodies, and fragments generated from explosions, collisions, or faulty payload assembly.

Loading next visibility...
Identifier
18693, 1974-089FA
Orbit
SSO
Country
Flag of USUS
Related business
Manufacturer
Unknown
Mission
Spacecraft
Bus & Motor
Unknown
Mass
Unknown
Launch date (UTC)
1974-11-15 (51 years ago)
Launch vehicle
Unknown
Launch site
Air Force Western Test Range (AFWTR)
Object type
Payload
Rocket body
Debris
Shape & HBR
Unknown shape, 0.1 m
Radar Cross Section
Small (<0.1 m²)

Expand to show TLE details & history
Last TLE update: 5 days ago

TLE from 5 days ago
0 THORAD DELTA 1 DEB
1 18693U 74089FA  26018.76794022  .00000892  00000-0  29281-2 0  9992
2 18693 101.7334 320.3439 0201771  53.6992  11.2701 12.98049526761848
Epoch: 2026-01-18T18:25Z
TLE epoch observation values (Epoch: 2026-01-18T18:25:50.035Z)
Latitude
63.02407°
Longitude
-98.23978°
Altitude
1,129.162 km
Speed
7.366 km/s
True Right ascension
19h 45m 34s
True Declination
62° 53' 30"
Sunlit
Object was in daylight at epoch
Visualization orbit readout
Latitude
Unknown
Longitude
Unknown
Altitude
Unknown
Speed
Unknown
Apparent Right ascension
Unknown
Apparent Declination
Unknown
Sunlit
N/A
Visualization observer readout
Local Sidereal Time
20:54:27
Azimuth
Unknown
Elevation
Unknown
Doppler factor
Unknown
Orbital elements
Apogee altitude
1,421.485 km
Perigee altitude
1,112.962 km
Semi-major axis
7,645.361 km
Eccentricity
0.02018
Inclination
101.7334°
RAAN
320.3439°
Arg. of periapsis
53.6992°
True anomaly
11.73341°
Mean anomaly
11.2701°
Eccentric anomaly
11.50059°
Mean motion
3.24673 °/min
Orbital period
110.88 mins
BSTAR
0.0029281
Loading maneuver chart data...
Computing Atmospheric mass density...
Loading historical data...
Loading historical data...
Loading historical data...
Loading historical data...
Loading historical data...
Loading historical data...
Loading historical data...

Documentation

Showing up to 5 results
|